GFSNGP_925_thetae_084.txt.gz
Theta_e
324 324 329 333 344 345 333 321 323 326 341 348 343 345 347 349 344 344 347 346 343 343 342 338 337 340 344 346 349 351 350 349 349 348 349 352 350 351 348 347 347 346 344 344
326 326 329 339 334 335 346 347 352 350 349 347 345 345 349 350 347 344 342 339 338 339 340 341 339 339 340 339 341 333 333 333 336 341 350 351 350 351 349 348 345 344 344 344
323 324 330 341 343 342 344 342 344 348 347 345 345 344 347 344 343 345 345 341 340 339 337 336 338 336 342 342 336 337 333 331 336 334 345 350 349 349 349 347 345 344 343 344
321 326 330 337 337 340 343 343 343 345 342 338 337 336 338 339 340 341 341 340 340 338 338 342 342 343 347 348 340 334 329 331 335 337 342 347 347 345 346 345 331 334 342 342
322 329 330 343 335 334 338 343 341 340 340 336 334 335 336 335 337 336 335 334 335 336 336 334 333 334 343 344 345 339 332 330 333 339 343 344 342 341 343 343 333 335 341 336
326 330 335 337 336 333 335 343 340 338 338 338 338 338 335 333 337 332 330 330 330 330 329 328 328 331 334 337 337 339 339 339 341 347 344 342 341 339 340 336 335 336 337 333
332 333 337 338 335 334 338 333 337 335 334 335 333 331 333 335 331 329 328 327 327 326 325 326 326 328 330 330 329 331 334 336 335 341 343 341 338 337 336 334 333 333 333 331
328 334 334 331 336 339 334 333 332 333 333 333 336 336 333 330 329 328 326 325 326 324 324 324 323 324 325 325 326 330 334 336 334 330 333 337 338 336 334 333 334 333 329 329
327 331 329 328 331 330 330 334 333 333 334 331 336 333 330 327 326 325 324 323 323 323 322 322 321 322 322 322 323 326 330 333 334 329 328 328 329 329 330 332 331 329 327 328
330 330 330 329 328 329 329 330 331 332 332 334 334 332 328 326 324 323 322 321 322 322 322 322 323 323 321 322 323 322 325 327 329 333 330 329 333 333 331 327 326 327 329 331
329 330 330 329 328 327 326 327 332 332 332 333 332 330 327 325 323 321 321 320 321 321 321 321 323 324 324 322 322 322 321 322 324 326 330 332 333 333 331 328 326 327 328 330
329 326 326 325 325 327 327 327 325 329 332 331 330 329 327 325 323 322 321 320 319 319 319 320 322 322 322 321 320 322 321 321 322 324 326 328 331 333 330 329 326 328 331 329
327 326 325 324 325 324 324 325 325 328 330 331 329 328 326 324 324 323 321 320 319 319 320 319 319 319 320 320 319 317 320 322 322 323 324 325 326 329 329 328 325 327 330 333
325 326 328 326 325 326 324 330 328 329 328 327 327 326 325 324 324 324 322 321 320 320 321 321 319 319 319 319 319 317 319 320 321 323 324 325 327 329 329 325 323 319 321 326
326 325 324 323 328 329 328 327 327 328 327 326 326 325 325 323 321 320 321 320 320 320 321 321 320 318 318 319 318 317 319 320 320 322 325 325 326 325 323 320 316 315 315 315
323 323 323 324 328 327 325 325 325 326 324 324 324 325 324 322 320 320 321 322 321 320 321 321 319 318 317 318 317 318 318 319 320 321 323 325 326 324 322 321 321 320 319 317
324 326 326 327 326 324 324 322 322 323 322 322 323 323 323 323 323 323 324 324 324 324 322 319 317 317 317 317 317 318 318 318 320 321 322 322 325 325 323 323 322 322 323 321
320 320 324 325 324 321 324 323 323 323 322 322 320 319 318 321 321 321 320 319 319 319 319 316 317 316 316 317 318 318 318 318 319 321 321 323 323 326 324 323 323 323 324 324
318 316 321 323 322 322 323 322 322 322 322 320 318 318 318 320 320 319 317 316 315 314 316 316 315 315 316 316 317 318 318 319 320 320 321 323 323 323 325 324 325 324 323 322
322 321 321 322 323 322 320 320 320 320 320 320 319 318 320 319 318 316 315 314 314 316 316 315 314 315 316 316 316 318 319 320 319 320 321 322 320 320 324 325 323 323 322 321
321 321 320 321 320 320 320 320 320 320 321 322 320 320 321 320 316 315 314 313 316 315 314 314 315 315 316 315 313 317 319 319 318 319 319 318 319 320 320 321 321 320 318 316
319 319 318 318 317 317 317 318 319 316 320 321 321 320 319 316 315 315 315 314 316 315 314 314 316 316 316 314 312 316 319 319 319 319 319 318 318 318 317 317 317 318 317 316
319 319 319 318 318 318 318 318 318 320 320 319 319 319 317 317 316 315 314 314 315 315 312 315 315 315 313 312 313 316 318 318 318 318 318 318 318 318 318 318 317 317 318 318
317 318 318 319 319 318 317 319 320 320 319 320 319 317 316 316 316 317 316 316 311 311 311 314 312 312 311 313 314 316 317 317 317 317 317 317 318 319 319 319 319 318 316 314
316 316 317 317 315 316 317 319 319 320 319 319 318 317 316 316 316 318 316 312 310 310 312 311 312 312 310 310 312 311 311 316 316 316 315 315 315 315 314 314 315 313 311 312
318 317 318 318 317 318 318 318 318 319 318 318 319 319 318 317 317 317 316 313 311 310 311 311 312 311 311 311 310 310 310 310 316 315 315 314 313 313 313 313 313 311 310 310
318 317 316 318 318 318 319 319 318 318 319 319 319 319 319 319 318 318 317 313 312 312 312 312 312 312 312 312 312 312 312 310 311 314 315 315 314 313 313 313 312 312 312 311

GFSNGP_925_thetae_087.txt.gz
Theta_e
326 327 328 329 331 339 339 345 342 334 330 349 346 351 348 346 346 348 348 347 345 344 342 337 335 335 335 345 352 351 351 351 349 348 351 353 352 353 352 352 351 349 347 347
329 325 327 330 333 334 337 340 341 348 349 345 343 346 347 348 347 346 345 343 341 340 339 338 336 331 335 342 339 349 350 344 345 344 342 342 341 344 349 352 350 348 347 347
328 326 327 330 343 343 336 338 344 347 347 346 348 347 344 343 344 343 342 341 340 343 341 337 338 338 338 341 337 337 338 337 338 341 337 337 335 334 341 347 351 349 349 348
327 329 329 340 337 334 337 341 342 344 346 346 346 344 343 342 342 343 342 342 338 338 337 335 335 338 344 344 342 339 337 336 334 333 335 332 333 336 336 342 349 349 349 348
329 328 329 341 335 332 334 339 337 340 339 336 337 338 339 337 339 338 337 334 333 331 331 331 332 337 340 339 343 338 338 340 336 335 335 336 336 333 338 342 347 348 345 343
329 329 328 341 333 335 335 338 333 340 340 339 340 344 340 338 335 333 332 331 329 329 329 328 328 333 334 333 335 335 336 339 337 338 343 345 340 338 341 342 343 341 341 338
333 331 338 339 337 336 341 339 337 338 337 338 340 336 338 335 332 329 328 329 328 327 326 325 326 327 328 329 330 331 334 337 336 335 338 341 342 340 340 339 337 336 337 337
336 339 335 334 337 341 339 338 337 337 336 338 339 338 335 332 330 328 328 326 326 326 325 324 323 324 326 324 325 328 332 334 335 332 332 335 337 337 337 337 335 334 333 333
337 339 335 332 335 334 335 337 338 340 336 339 337 335 333 331 329 328 326 325 325 325 325 325 324 324 324 323 322 325 326 327 330 332 331 331 332 333 333 334 335 335 336 336
335 335 335 333 332 330 331 336 337 337 336 338 338 335 332 330 328 327 325 324 325 325 325 325 325 325 325 325 324 324 324 324 324 325 328 331 333 333 333 333 332 330 329 329
333 333 334 333 332 330 332 335 335 336 337 336 335 334 332 330 327 326 325 325 324 324 325 324 324 324 323 323 322 322 326 326 325 324 325 328 330 330 331 330 329 329 328 331
334 332 333 332 330 329 330 329 331 334 336 335 334 333 331 330 327 326 325 324 324 323 323 322 322 322 322 322 321 321 321 325 324 325 326 326 328 329 330 329 327 329 328 328
331 331 330 329 329 328 328 328 330 331 333 334 333 333 331 331 329 327 325 324 323 323 323 323 323 321 321 321 321 320 321 323 323 326 327 327 327 328 330 323 322 325 327 331
327 329 332 329 330 330 328 333 332 332 331 331 331 331 331 330 329 328 326 323 323 323 324 324 323 322 320 320 320 320 320 320 323 324 326 327 326 328 326 326 323 320 321 326
328 329 328 329 332 333 331 328 328 331 330 330 329 329 329 329 329 327 325 323 323 323 324 324 323 322 320 319 320 320 320 320 321 323 325 326 328 327 325 323 321 320 316 315
328 328 328 329 332 331 327 327 327 329 330 330 330 328 327 325 323 323 324 325 326 327 326 324 322 319 319 319 319 319 320 319 319 323 325 326 327 326 326 324 323 323 322 321
328 329 329 329 331 330 327 325 326 328 329 327 327 326 326 326 326 326 326 323 323 323 323 321 318 318 318 318 319 320 320 320 319 323 325 326 327 326 323 323 323 322 321 322
324 324 327 329 331 327 327 326 326 327 327 326 323 323 323 325 327 326 324 322 320 319 319 318 318 317 317 318 319 320 320 320 321 324 324 326 327 328 325 325 324 323 322 321
325 324 325 328 328 326 327 326 325 325 325 324 322 322 323 324 324 324 321 319 318 318 318 317 315 315 317 317 316 319 320 322 323 323 325 325 327 327 327 324 323 322 321 320
324 324 326 326 326 326 325 324 325 325 324 324 323 323 322 323 322 321 318 318 318 317 317 317 315 315 316 315 313 318 321 322 323 324 323 324 322 323 324 325 323 322 320 319
326 325 325 326 324 323 323 322 321 322 322 323 325 325 325 324 321 319 319 317 317 317 315 314 315 316 316 315 313 316 319 320 321 323 323 323 323 320 321 321 320 319 318 317
324 324 323 322 322 322 321 321 322 320 323 323 323 323 323 322 320 319 318 317 315 316 315 315 316 316 315 313 315 318 318 319 320 320 319 319 323 322 319 319 319 320 318 317
323 323 323 323 324 323 323 323 322 323 324 323 322 321 320 319 319 319 319 319 316 315 314 314 315 313 311 313 315 317 319 317 317 319 318 319 319 319 319 320 319 318 315 316
321 322 322 321 321 323 325 324 323 322 322 322 322 321 319 318 318 318 318 317 313 310 312 313 312 311 310 313 315 316 318 317 316 316 317 318 319 320 320 319 317 317 316 315
319 320 321 321 322 323 322 318 320 322 323 322 322 321 320 318 318 318 319 318 312 309 313 312 311 311 313 311 312 312 312 315 317 316 315 315 315 315 315 316 316 315 315 315
320 321 322 320 320 321 322 322 322 321 322 322 322 322 321 320 319 318 318 318 315 312 312 313 313 313 313 313 312 312 312 312 313 316 316 316 315 315 314 314 313 312 312 312
320 317 320 320 317 317 321 322 322 322 322 322 321 319 319 321 319 319 319 319 315 314 313 314 314 313 313 313 313 314 314 313 312 313 315 316 316 316 315 315 314 313 312 312

GFSNGP_925_thetae_093.txt.gz
Theta_e
330 328 327 327 327 326 327 329 339 338 340 339 336 335 346 351 352 350 349 349 348 346 345 343 343 341 340 340 338 341 343 340 337 336 344 347 351 352 353 353 352 352 352 350
331 328 326 327 326 325 326 326 332 332 334 342 348 347 349 350 349 348 349 347 347 346 346 344 342 342 342 342 340 339 338 342 338 339 339 348 350 352 352 353 352 352 353 352
333 329 328 329 327 329 329 333 333 337 345 345 345 346 347 345 344 345 345 345 344 343 341 343 344 343 341 339 340 343 348 344 340 336 337 338 351 352 352 352 353 353 355 354
333 334 338 333 334 332 331 331 335 341 341 340 341 341 336 343 345 344 342 342 343 343 341 339 341 346 344 341 341 342 344 345 344 345 345 346 347 353 353 353 352 351 352 353
337 334 334 334 343 340 338 337 340 340 337 334 337 333 329 340 340 339 338 338 337 338 338 337 339 340 344 344 342 341 341 342 342 342 345 346 349 349 349 348 349 348 350 352
335 339 337 343 340 338 337 338 340 337 336 332 333 335 337 340 338 338 336 335 335 334 334 336 337 338 339 338 338 340 342 342 343 344 344 344 345 346 343 345 346 346 347 350
341 338 336 338 337 338 340 344 341 339 338 337 334 335 336 338 337 335 334 333 333 332 333 332 332 334 335 333 334 334 336 340 342 343 344 344 344 346 346 346 346 348 348 349
337 337 338 335 337 340 343 339 337 337 339 339 339 339 338 336 336 334 334 332 331 332 331 332 332 332 332 332 333 333 334 334 335 337 339 341 342 341 343 343 344 343 344 345
335 338 336 335 339 339 337 336 337 337 337 338 337 335 334 334 334 334 333 332 331 331 331 331 330 330 330 330 330 332 333 333 333 333 334 337 338 339 341 341 344 342 342 342
333 333 335 335 334 336 333 334 335 334 334 333 333 334 334 333 333 333 331 331 331 330 330 329 329 328 328 328 328 328 329 331 333 333 331 333 334 336 337 337 339 339 338 337
327 329 334 335 334 335 335 332 331 330 330 330 332 332 332 334 333 333 332 330 329 329 329 329 329 329 328 327 327 327 328 327 330 329 333 333 332 332 332 334 334 333 335 336
327 332 335 335 332 334 333 333 331 331 329 328 329 331 331 333 332 331 330 330 329 330 330 330 330 329 328 327 326 327 327 325 326 325 327 330 331 332 333 331 330 329 331 330
324 330 332 330 326 328 330 333 328 326 327 329 329 330 330 333 332 330 330 329 329 329 330 329 329 328 327 325 325 326 326 326 323 323 325 327 328 329 332 332 331 330 329 327
324 332 331 335 334 328 330 329 326 328 329 329 329 330 330 332 332 332 330 328 328 329 329 328 328 326 325 324 324 324 324 324 324 324 323 324 327 329 331 331 330 330 329 326
326 332 329 327 331 329 329 326 326 327 327 329 328 329 328 329 329 328 327 327 327 328 329 327 325 325 324 323 323 323 324 324 324 322 322 323 325 330 331 330 330 330 330 328
329 330 328 328 328 329 327 326 326 327 327 327 327 327 327 327 327 327 327 326 326 326 325 324 324 323 322 321 322 322 322 322 322 323 322 323 326 330 331 330 330 329 329 328
329 328 329 328 328 330 328 326 326 327 327 327 327 326 326 326 327 328 327 326 325 324 323 323 322 322 320 321 321 321 321 322 322 322 323 324 323 325 331 331 330 328 327 325
329 330 328 327 326 331 328 327 327 327 329 328 327 326 326 326 330 327 328 326 325 323 322 321 321 318 320 320 320 320 321 322 323 324 324 324 325 325 329 330 329 328 327 325
328 329 327 327 325 326 326 327 328 329 329 328 327 326 326 325 326 327 327 326 324 323 320 319 319 319 321 321 318 320 321 323 324 324 325 325 326 327 329 329 328 327 324 323
327 327 327 326 327 327 329 328 328 327 326 325 325 326 326 327 327 328 326 325 324 323 319 320 319 321 320 320 317 318 320 322 322 323 325 325 326 326 326 327 326 325 322 318
328 327 327 328 328 328 327 326 324 323 323 324 325 326 326 326 325 325 324 323 323 321 317 316 319 320 319 317 315 318 320 319 320 320 321 322 325 325 325 323 323 324 323 322
326 326 325 324 324 323 322 322 322 323 323 324 323 323 322 322 322 323 324 324 322 319 317 317 320 315 314 313 317 318 318 317 318 319 319 319 321 323 325 325 325 324 324 321
325 323 322 323 323 324 323 323 323 323 323 323 323 323 323 323 322 321 322 324 319 318 315 314 317 315 312 314 316 317 317 317 316 316 317 316 319 322 322 322 324 323 322 320
324 323 323 323 323 323 326 324 323 322 322 323 323 323 323 322 321 321 321 320 319 318 317 311 314 314 312 314 316 316 316 315 315 316 316 315 315 317 321 321 322 321 320 320
323 324 323 324 324 325 323 324 324 322 321 325 325 324 325 324 323 322 320 319 318 319 319 313 314 315 313 314 316 315 315 314 315 314 313 315 316 316 316 315 316 320 319 318
325 324 323 324 323 323 321 321 321 319 320 319 321 321 322 323 322 322 323 321 320 320 318 316 315 316 316 316 315 315 314 315 315 315 314 314 315 316 315 315 316 316 316 318
322 323 323 324 321 321 320 319 319 319 319 320 319 319 321 321 321 321 321 321 321 321 320 318 317 316 316 316 315 315 315 315 315 315 315 314 313 314 315 315 315 314 314 314

GFSNGP_925_thetae_096.txt.gz
Theta_e
329 329 328 329 328 327 327 327 330 329 336 338 340 338 335 338 346 346 349 348 348 346 345 344 343 343 341 342 339 342 343 342 341 339 341 338 330 331 343 350 351 349 350 351
332 330 329 329 328 328 327 327 326 332 346 341 341 342 343 347 346 348 347 347 346 344 346 346 345 343 345 344 342 345 345 342 339 337 335 333 334 338 349 350 351 350 350 350
334 331 330 331 339 336 336 333 339 339 346 340 340 345 348 347 346 346 344 344 345 344 342 343 344 345 342 342 340 341 343 345 341 340 340 341 344 347 349 351 351 351 350 350
334 333 337 335 336 334 337 341 341 343 338 336 335 338 339 336 339 342 341 340 344 341 339 340 343 344 341 341 343 344 344 346 345 341 340 338 337 337 347 348 350 349 348 349
335 334 334 338 336 337 337 342 340 340 338 338 335 333 334 330 335 338 340 338 341 340 338 339 340 341 340 340 343 344 344 344 344 345 343 342 341 344 347 347 345 347 349 350
338 339 343 341 333 331 339 344 339 337 339 341 338 340 336 332 332 332 337 335 334 334 334 336 337 336 335 335 336 337 339 340 344 345 343 341 343 343 342 341 341 342 343 342
342 339 335 337 335 336 342 345 338 336 337 339 337 335 333 332 336 335 335 334 334 334 335 336 334 335 335 335 335 336 337 336 336 338 340 342 342 343 339 337 342 345 345 345
340 342 341 336 336 341 340 338 336 337 337 336 336 332 335 335 335 335 336 333 333 333 333 333 333 333 333 333 333 334 335 335 334 334 335 338 340 342 343 343 343 345 344 344
334 335 339 336 338 336 336 338 338 338 337 334 337 337 336 336 336 335 333 334 332 332 331 331 331 331 331 331 331 331 332 335 336 334 331 335 336 338 339 340 343 344 344 344
335 333 336 336 335 335 337 337 335 329 335 333 336 335 336 336 335 335 333 332 331 330 331 331 330 330 330 329 329 329 330 330 332 335 332 332 334 332 333 336 338 338 338 338
333 330 331 333 336 335 332 332 334 333 331 331 332 334 334 334 335 335 333 331 330 331 330 330 330 330 330 328 328 328 328 328 329 328 330 336 335 333 332 332 332 333 333 335
330 331 334 335 334 330 329 330 329 329 330 330 332 334 333 333 332 332 331 330 330 330 330 330 330 330 329 327 327 327 328 327 327 325 324 326 331 333 331 332 333 331 329 328
329 326 334 330 330 329 328 326 327 329 329 329 328 335 334 334 333 331 329 329 329 330 331 330 329 328 326 326 326 326 327 327 325 325 325 325 326 329 332 332 330 330 329 328
325 329 333 335 331 330 330 330 329 327 328 327 330 327 333 332 333 331 330 328 328 329 329 330 329 329 327 324 325 325 325 325 325 325 324 323 324 327 329 332 331 331 329 328
323 326 332 331 330 328 328 329 330 330 329 330 327 329 329 332 332 328 327 326 327 328 328 326 325 326 325 324 323 324 324 325 324 323 323 322 322 324 328 331 330 330 330 327
326 326 328 328 326 326 327 327 330 328 327 326 326 326 326 327 327 327 326 326 326 327 325 324 325 324 323 321 323 322 322 322 322 323 324 323 324 327 329 332 331 330 330 329
326 328 327 327 331 328 329 328 328 328 326 327 326 325 325 327 328 328 327 328 326 326 324 324 323 323 320 322 322 321 322 323 324 325 325 327 327 328 330 331 331 330 328 323
326 323 324 326 328 330 326 327 327 327 331 329 328 327 326 327 329 328 328 327 327 325 323 322 322 319 321 322 321 320 322 322 323 325 325 326 326 328 329 330 330 328 327 324
325 323 322 322 323 328 328 330 329 328 327 328 328 328 326 327 327 327 327 328 326 328 322 321 321 319 322 321 320 319 321 322 322 323 323 325 327 327 327 328 329 327 325 324
328 324 321 321 330 330 331 329 327 326 325 324 324 325 325 328 327 328 329 328 326 325 322 320 319 322 323 321 320 317 318 320 320 322 321 323 324 325 326 327 326 325 324 321
329 328 328 327 327 326 325 324 323 323 323 323 324 325 324 324 323 323 325 325 326 323 321 317 317 320 320 317 314 315 318 319 318 319 319 319 320 324 326 326 325 325 324 322
327 326 325 324 324 324 323 323 323 323 325 324 323 323 323 323 324 324 324 325 324 320 319 318 319 320 316 313 313 317 319 319 319 319 318 318 318 322 323 325 325 324 324 322
324 325 325 324 324 324 323 325 324 324 323 324 323 324 323 322 322 323 325 326 324 319 319 318 316 316 316 314 314 315 317 317 317 317 317 318 316 320 323 323 322 324 323 322
325 325 326 325 324 325 327 325 324 324 323 322 324 326 325 325 324 322 323 323 320 320 320 319 315 313 313 314 314 315 317 316 316 315 316 316 316 316 320 322 323 323 322 320
321 321 322 326 326 324 323 324 325 322 325 322 323 323 323 325 325 324 322 323 321 319 321 320 314 313 314 315 314 315 317 316 315 315 315 315 314 315 317 316 322 322 321 320
322 320 322 321 326 323 323 322 321 319 320 321 321 320 319 321 321 323 323 323 322 322 321 321 318 316 316 317 317 316 315 315 315 316 316 316 316 316 316 316 317 318 319 319
319 318 321 322 321 321 320 320 319 320 320 320 319 319 320 320 321 320 321 322 322 324 321 319 321 320 319 317 317 317 316 317 317 316 316 316 316 317 315 316 316 315 315 316

GFSNGP_925_thetae_102.txt.gz
Theta_e
321 322 323 324 325 332 332 334 337 337 338 339 339 338 342 342 341 334 334 332 337 340 341 342 344 343 340 344 343 343 342 343 342 336 339 336 338 341 340 340 338 333 341 345
321 322 324 327 335 336 337 337 341 340 342 336 335 332 337 338 335 337 340 341 342 340 340 342 342 343 343 341 342 341 342 342 342 340 340 340 339 338 336 336 336 333 336 343
319 321 324 331 336 336 339 337 341 341 337 336 335 334 334 333 334 337 340 343 341 339 339 340 340 339 341 341 342 344 345 342 340 340 339 339 339 338 337 337 338 340 338 339
321 327 336 330 332 334 337 337 338 341 340 339 335 332 332 331 333 333 338 340 338 338 337 337 338 338 340 341 341 342 343 343 339 338 338 336 336 336 337 337 338 342 343 343
335 335 333 337 332 337 336 336 338 336 338 334 330 334 332 331 331 332 333 333 336 337 337 336 335 336 336 336 337 337 337 340 341 341 340 339 337 336 335 337 338 341 343 343
336 337 338 334 335 335 335 339 335 336 333 330 329 332 332 331 332 332 332 333 333 333 333 331 331 332 333 335 333 334 334 335 338 340 341 341 340 337 339 339 340 339 343 343
338 336 335 334 335 335 339 335 334 330 330 330 330 329 331 332 332 333 333 332 331 332 332 331 330 329 329 330 331 334 334 331 330 334 337 338 340 340 340 339 339 339 338 339
331 335 336 334 337 334 330 333 333 332 331 333 330 329 332 332 333 332 332 331 330 330 330 330 328 328 328 328 329 328 329 333 332 331 332 334 336 337 338 340 340 339 339 340
328 328 326 329 334 332 332 332 333 332 332 331 333 332 332 333 332 331 331 331 330 330 330 330 329 327 327 327 326 327 327 326 328 333 331 331 332 333 335 337 336 336 336 335
328 329 328 331 334 332 331 330 331 330 330 331 331 331 333 331 330 330 330 330 330 330 329 329 329 328 327 327 325 325 326 326 326 326 330 330 331 331 331 331 331 330 330 331
324 323 323 329 333 331 328 331 331 329 330 330 328 332 330 330 330 329 329 329 329 329 329 328 329 327 325 325 325 325 325 325 325 325 324 325 326 330 331 331 332 331 329 329
323 321 325 331 330 327 326 325 328 330 329 331 329 329 330 328 329 330 329 329 329 329 328 328 329 327 325 323 324 324 324 323 323 324 325 324 322 323 331 330 331 331 330 329
321 323 325 330 327 326 323 324 327 328 329 330 331 330 331 328 328 329 329 328 327 328 328 329 328 328 325 324 323 322 322 323 322 322 324 324 323 321 329 331 331 330 330 329
320 327 331 329 329 328 326 328 327 326 328 328 330 331 330 329 328 327 328 327 327 328 327 326 325 326 323 322 320 322 322 321 321 322 322 323 322 323 322 322 327 329 329 329
325 325 325 324 324 324 324 327 327 326 326 327 329 330 329 327 327 327 327 326 326 326 325 323 324 323 322 319 320 322 321 320 321 323 325 326 326 328 326 323 322 328 329 328
325 323 325 325 325 325 325 326 327 327 326 325 325 328 329 329 326 327 326 326 325 325 326 324 324 323 322 318 321 321 319 320 320 324 324 325 326 329 330 328 329 328 328 327
327 326 324 323 323 324 325 324 325 326 325 323 322 326 327 326 325 326 326 327 327 326 327 325 323 322 318 321 321 322 320 319 318 321 322 324 326 327 328 328 329 328 326 324
323 324 323 320 322 325 324 323 325 324 324 324 324 324 326 326 325 326 326 327 327 325 323 322 320 320 318 320 321 321 321 318 317 317 321 321 326 325 325 325 327 326 325 324
323 322 324 324 323 322 324 325 325 324 325 326 326 325 326 326 327 327 326 326 326 325 325 322 320 319 318 319 321 322 321 315 314 314 317 318 322 325 324 323 325 325 324 323
321 323 322 325 324 325 324 324 323 325 326 324 323 323 326 326 326 325 327 326 326 326 326 323 319 318 318 318 321 320 316 314 313 314 315 318 320 320 323 323 323 324 324 322
321 320 325 323 327 326 322 325 325 324 324 323 322 323 325 322 322 322 322 319 323 325 325 321 320 318 317 318 319 319 317 314 314 313 314 314 319 317 320 323 322 323 323 323
324 325 325 325 325 324 324 323 323 323 322 321 322 322 322 322 323 323 322 322 325 325 324 320 319 319 318 316 318 316 314 313 313 313 314 315 318 317 317 323 322 322 321 319
322 322 322 322 324 325 324 324 323 323 323 323 323 322 323 325 326 322 320 323 324 325 322 319 319 320 319 316 315 314 312 313 313 313 314 315 315 316 316 320 321 322 320 318
320 318 319 322 321 322 324 322 322 324 325 323 324 323 324 323 321 322 323 323 323 322 320 319 321 321 321 319 316 313 317 318 317 316 316 315 314 315 315 316 318 322 321 317
319 318 318 319 320 321 320 320 320 321 320 319 319 319 319 321 322 321 322 322 322 321 321 321 320 320 319 318 318 320 319 318 317 317 316 315 316 316 316 317 319 321 320 319
318 317 318 319 320 320 321 320 320 318 318 318 319 320 319 319 319 318 317 317 317 318 318 319 318 318 317 316 317 317 318 317 316 317 317 318 317 317 316 316 317 318 319 320
319 318 318 319 320 320 320 320 319 318 317 317 317 321 320 320 318 318 318 317 316 315 315 314 313 313 314 316 316 317 317 317 317 316 315 316 317 316 315 314 314 314 314 315

GFSNGP_925_thetae_105.txt.gz
Theta_e
318 319 320 321 322 325 334 326 334 331 335 332 335 333 332 338 335 335 336 333 335 338 337 340 341 343 341 342 342 341 339 338 336 335 336 334 332 332 334 342 339 339 342 345
319 318 319 323 323 330 335 336 337 337 338 334 332 330 332 333 332 334 336 341 342 340 338 340 340 340 339 339 339 342 344 344 341 338 336 335 334 333 338 341 341 339 335 334
316 317 323 325 327 333 334 336 336 340 334 333 335 333 332 330 330 332 333 338 337 339 338 339 338 340 341 341 342 342 342 340 340 340 340 339 337 335 336 338 339 335 335 335
317 324 331 325 332 333 335 338 336 338 337 335 332 331 330 329 330 331 333 336 337 335 336 336 337 338 339 340 341 341 341 340 339 338 338 338 339 338 338 339 338 337 338 337
322 328 329 334 332 335 335 334 336 335 332 330 329 329 328 330 330 330 333 333 334 336 333 332 333 335 334 336 336 336 336 339 340 340 339 337 335 335 336 337 337 337 338 340
331 335 337 331 334 333 332 335 333 332 332 329 327 329 328 329 332 333 333 332 332 331 330 329 329 330 331 332 333 332 331 333 336 338 339 340 339 336 336 336 338 337 340 341
332 335 335 332 334 333 336 329 332 331 328 329 329 326 326 332 332 332 331 330 331 329 328 327 327 328 327 327 327 329 333 331 331 333 335 337 339 339 339 339 339 339 338 340
329 332 332 332 335 334 327 328 332 331 328 329 328 329 329 330 332 331 330 329 329 328 328 327 326 326 325 325 326 326 326 327 332 331 332 333 336 336 338 339 338 338 338 339
328 330 326 325 330 329 329 331 333 331 330 328 330 331 330 331 332 331 331 329 329 329 328 328 327 326 325 325 325 325 325 325 327 331 326 331 330 331 334 334 335 335 334 335
327 327 326 326 330 329 331 330 329 329 330 330 331 330 329 330 330 330 329 329 329 328 327 327 327 326 325 325 324 324 324 323 324 324 324 325 331 331 330 330 330 329 329 329
324 323 322 322 324 329 330 329 330 328 330 329 329 328 328 328 328 328 328 328 328 327 327 327 327 325 323 323 324 323 322 322 322 323 324 323 322 323 329 330 331 329 329 328
323 318 321 323 326 329 327 326 328 328 327 329 329 328 328 329 327 328 328 328 327 327 326 327 327 327 324 324 322 321 322 321 320 321 322 323 322 321 328 330 331 331 330 329
319 320 318 324 328 325 324 324 326 327 327 329 330 329 329 327 327 328 328 327 325 326 327 328 326 326 324 322 320 321 321 320 321 322 322 322 322 321 321 330 331 330 330 329
313 322 330 328 328 326 324 327 325 325 325 325 328 330 329 328 327 327 327 326 327 327 325 323 325 324 322 319 319 321 320 320 321 324 324 325 325 324 322 321 321 323 329 329
324 323 324 324 323 323 324 325 326 326 325 325 328 329 328 325 325 326 327 326 326 325 323 322 323 323 321 318 321 320 318 319 321 323 324 325 327 328 326 322 321 322 327 328
322 323 324 324 323 324 325 325 325 327 326 324 323 325 327 327 326 326 326 325 324 323 325 324 323 323 319 319 320 321 320 318 318 321 322 322 325 326 327 328 328 327 327 327
325 326 323 323 323 322 323 322 324 325 326 324 323 324 325 326 325 325 325 324 326 326 325 325 323 321 319 319 320 320 320 319 316 316 316 320 321 325 326 325 324 326 326 325
322 321 320 320 321 323 323 322 324 325 324 324 325 325 324 323 322 323 325 325 326 326 324 323 321 319 318 318 320 321 321 320 314 313 313 315 316 319 324 323 322 324 325 325
322 324 323 321 322 321 322 323 323 323 324 325 324 323 324 324 325 325 326 325 324 323 323 324 323 319 318 317 316 319 320 317 315 314 313 313 314 316 319 323 322 322 324 324
323 321 322 323 323 324 324 324 324 323 323 325 322 322 323 324 324 321 322 322 322 323 322 325 322 318 318 317 318 320 319 317 315 313 313 313 313 314 317 319 322 322 322 322
321 322 322 323 326 326 325 325 324 324 323 323 321 322 323 321 321 321 321 318 321 324 324 325 321 319 318 318 317 317 317 315 312 312 312 312 312 313 315 318 318 321 321 321
323 323 324 324 325 324 324 322 322 322 323 322 321 321 321 321 323 323 322 321 322 324 324 323 320 318 319 320 318 317 315 313 312 316 316 315 315 314 314 315 317 317 321 321
318 319 320 321 322 322 323 322 321 322 321 321 322 321 321 322 323 321 318 322 323 322 323 320 319 319 320 321 320 319 316 314 317 317 316 316 315 313 313 314 315 316 318 321
317 316 317 320 320 320 320 320 321 320 322 322 322 323 321 320 319 320 321 322 321 321 320 320 320 319 318 318 318 318 318 318 317 316 317 317 316 315 313 313 314 315 316 319
317 317 319 319 319 319 320 320 318 318 318 318 319 319 320 320 319 317 317 317 317 317 317 316 315 315 315 315 315 316 316 317 317 317 316 317 316 317 317 316 315 315 317 319
317 318 318 320 320 319 319 319 319 316 316 317 318 319 319 318 317 317 316 316 315 316 315 314 313 313 313 314 315 316 316 316 316 315 314 314 315 316 316 316 315 313 313 313
319 318 319 319 319 319 318 319 318 318 317 319 317 314 313 311 312 314 317 315 313 311 308 308 310 310 311 310 311 312 313 312 312 312 311 311 313 313 313 313 312 312 311 309

GFSNGP_925_thetae_111.txt.gz
Theta_e
323 324 323 323 323 322 322 322 326 325 329 332 336 338 336 334 334 335 335 334 333 334 339 341 340 341 341 342 342 341 341 341 341 341 338 338 338 338 338 338 339 341 343 345
323 321 321 321 322 321 321 322 324 327 334 336 336 335 333 334 334 335 334 334 334 333 339 339 338 339 339 339 340 340 342 342 340 339 337 337 336 336 336 337 337 338 339 343
321 320 320 322 322 321 324 331 334 337 335 335 337 334 333 334 335 335 334 334 334 333 335 337 336 336 337 336 338 339 339 339 340 339 339 337 336 337 336 337 338 338 340 340
322 323 324 322 332 333 335 335 336 336 335 337 337 332 332 334 333 330 333 334 334 333 334 332 332 333 333 332 334 335 332 337 338 339 339 338 336 336 335 336 336 335 338 338
325 324 324 324 335 335 333 333 333 334 333 334 332 331 331 333 331 328 328 329 330 330 330 328 328 330 328 328 330 332 332 336 337 337 337 337 339 339 337 337 337 336 337 339
331 330 328 334 334 333 334 337 333 334 334 334 333 336 334 334 329 329 325 328 328 328 327 325 325 326 327 326 326 328 332 333 335 337 336 338 337 338 337 336 338 339 340 339
332 335 334 332 333 334 335 334 331 333 334 335 336 334 332 332 330 329 328 328 327 328 327 324 324 325 326 326 326 326 330 332 331 334 336 338 339 340 338 339 338 339 340 339
337 338 333 331 336 336 334 334 332 332 335 336 335 333 331 331 329 328 326 328 327 329 328 326 325 326 326 325 325 326 326 326 326 329 331 333 338 339 340 341 341 340 335 333
334 330 330 330 332 332 332 333 334 333 334 334 334 333 332 334 330 327 324 325 327 327 329 325 324 324 325 325 325 326 326 326 325 325 327 331 333 334 335 336 337 337 333 333
327 328 327 327 327 328 329 332 332 333 333 332 334 333 332 330 332 330 328 328 328 329 329 328 326 324 322 323 322 325 324 324 325 325 326 322 327 332 331 331 331 331 333 334
328 326 323 325 325 325 327 330 332 332 330 331 331 332 332 333 332 329 328 328 328 329 328 329 328 326 323 321 320 323 323 324 324 324 325 326 324 328 332 331 331 330 330 330
322 322 323 325 323 322 324 328 330 331 330 330 331 331 331 332 330 329 328 327 328 329 328 328 327 327 323 319 319 322 323 323 323 323 324 325 324 327 328 330 329 329 328 330
321 320 322 321 321 320 322 331 328 329 330 331 331 331 329 330 330 329 327 327 328 328 328 326 326 325 321 317 320 320 321 322 324 325 326 328 329 326 327 327 329 329 328 328
319 321 319 319 321 327 327 328 326 328 329 330 328 331 330 330 329 328 327 326 325 327 326 324 325 325 321 317 320 320 320 320 323 323 324 326 328 328 327 327 326 325 322 326
325 324 320 320 324 328 328 329 329 330 330 330 331 330 330 330 330 329 328 326 326 326 326 324 325 325 320 319 321 321 320 319 320 322 322 323 325 325 325 324 324 325 328 327
326 327 328 328 328 330 329 329 329 329 329 328 328 329 329 328 327 326 327 327 326 327 327 326 325 323 318 319 320 321 321 316 315 318 318 319 320 321 322 323 324 322 322 324
329 330 329 329 329 329 329 328 328 328 328 327 328 327 327 329 328 326 327 326 327 328 327 326 325 319 318 318 319 321 322 321 316 318 316 315 316 317 318 320 322 321 324 323
324 324 324 327 327 326 327 326 326 326 328 326 327 327 328 328 327 324 326 324 325 326 326 326 324 321 318 318 318 319 320 322 319 318 316 315 315 315 315 317 319 321 321 323
323 324 324 326 325 324 325 325 325 325 327 326 326 326 326 326 325 327 327 326 325 325 325 324 323 321 322 320 318 319 320 320 318 318 317 315 316 315 314 314 316 317 319 321
323 324 324 324 324 324 325 325 326 325 326 324 323 324 326 325 324 323 323 323 323 322 323 323 323 322 320 318 318 319 319 319 319 318 317 315 317 318 318 316 316 317 318 319
324 324 324 324 325 325 326 325 325 325 324 322 323 326 325 324 324 324 322 323 321 321 320 319 319 318 319 319 320 320 319 318 318 317 317 318 318 318 318 318 317 316 316 317
320 322 323 325 325 324 323 323 324 323 323 323 322 323 323 325 324 321 321 321 320 319 321 320 319 317 317 318 318 318 318 318 319 319 318 318 318 318 318 318 318 317 318 318
320 321 323 324 324 323 321 322 322 321 322 322 322 323 321 320 322 323 322 318 318 316 316 314 313 313 315 316 317 316 317 317 317 317 317 317 316 317 317 317 317 318 318 317
322 322 322 322 321 319 318 318 318 318 319 317 317 319 320 319 318 317 316 315 314 314 309 310 311 312 312 313 314 314 314 314 313 313 313 312 313 313 314 315 315 316 315 314
320 321 321 320 319 320 319 319 318 317 316 315 316 317 317 317 317 316 315 308 306 306 304 302 302 303 304 304 305 305 306 306 305 306 308 311 312 312 312 312 313 312 312 312
320 321 321 320 319 317 318 319 318 317 314 312 311 312 312 311 309 307 304 303 302 301 301 300 298 299 299 299 300 300 301 301 301 301 301 302 303 304 306 305 305 307 309 307
320 320 321 321 320 319 318 318 318 317 312 308 306 306 306 305 303 303 302 301 300 300 299 298 298 297 297 297 297 297 297 297 297 297 297 297 298 298 298 299 300 301 302 304

GFSNGP_925_thetae_114.txt.gz
Theta_e
327 325 324 324 325 324 325 326 326 325 324 326 333 338 338 335 335 336 337 336 336 336 337 335 337 341 341 343 344 344 345 345 345 344 342 343 343 342 341 342 342 342 344 347
326 323 323 323 323 323 322 323 323 323 326 334 336 335 336 335 336 336 336 337 337 336 334 335 337 338 338 341 341 342 343 344 344 343 341 341 341 341 342 342 341 341 342 342
324 322 322 323 323 323 323 324 327 333 335 334 336 337 336 336 336 335 334 333 335 334 336 335 335 335 335 336 339 340 340 341 343 342 342 341 341 341 340 340 340 342 341 342
325 325 326 327 329 331 330 331 334 334 334 333 334 334 334 336 336 334 333 332 331 329 328 330 330 331 331 331 332 337 338 338 340 341 340 340 341 340 339 340 341 340 339 343
328 326 325 324 329 332 334 333 334 334 332 331 331 332 334 336 333 332 330 328 329 329 327 326 327 329 329 330 329 330 336 336 338 339 338 335 341 341 342 342 339 337 337 338
327 329 327 334 336 333 334 335 333 332 332 332 332 333 335 337 333 332 330 330 329 329 327 326 325 329 329 328 328 329 332 334 337 339 340 341 341 341 342 342 342 342 341 339
326 327 326 333 334 333 336 338 333 334 333 333 334 335 336 336 334 330 329 330 328 328 328 327 326 328 328 328 328 328 332 331 335 338 340 341 341 341 341 342 342 341 337 338
330 331 331 333 334 335 335 334 333 335 334 336 335 336 336 335 334 330 327 327 328 327 326 327 327 327 327 327 328 330 330 331 333 336 337 340 341 341 342 342 341 340 337 332
328 331 333 329 329 329 330 333 334 335 334 334 334 335 334 334 335 328 326 325 328 325 326 323 326 327 326 325 327 329 330 331 332 332 333 337 338 338 336 339 340 338 338 337
326 326 327 328 326 326 328 331 333 333 334 332 334 334 334 335 335 333 329 328 329 327 327 327 319 328 327 325 325 328 329 329 331 329 330 332 333 333 332 332 332 332 334 335
328 327 327 326 324 326 325 326 329 333 333 331 332 332 334 333 334 333 330 328 329 328 329 329 326 327 327 323 325 327 328 328 327 326 328 328 330 332 332 331 330 331 331 331
324 323 323 323 322 323 324 324 325 332 332 332 332 332 331 331 330 331 330 329 329 328 328 328 328 328 326 323 325 327 326 327 326 327 327 327 326 330 330 329 329 328 329 330
320 320 321 321 322 323 325 329 328 332 331 332 330 329 329 329 329 330 327 328 329 328 326 327 328 327 326 323 324 325 326 328 327 326 327 328 329 327 330 329 329 330 329 328
320 321 323 322 323 322 325 327 328 330 331 332 329 328 328 327 329 329 328 327 327 326 328 327 327 328 325 322 324 324 325 323 326 325 324 325 326 326 326 327 327 327 324 324
321 328 326 326 327 325 327 330 331 332 332 332 330 329 327 328 328 328 327 328 327 325 328 328 328 327 323 323 324 324 322 321 322 322 321 321 322 322 323 323 323 324 328 326
327 325 327 331 332 331 332 332 332 332 331 331 330 329 327 328 326 327 330 330 328 327 326 327 325 324 322 323 324 323 323 317 317 320 320 320 320 320 320 321 322 322 322 321
326 325 328 328 330 331 332 332 332 330 330 330 329 329 328 329 327 328 327 327 327 325 328 328 325 323 322 322 322 321 321 322 319 320 319 318 318 318 319 319 320 320 321 322
326 327 327 327 329 330 331 331 330 330 331 329 328 330 328 328 327 327 326 326 324 327 327 328 328 325 323 322 322 321 321 322 321 320 320 320 319 318 318 317 318 319 320 320
326 326 326 326 327 328 329 329 328 327 328 329 329 327 327 327 326 326 325 325 325 325 327 328 326 324 325 322 318 321 322 321 321 321 321 320 320 320 321 321 318 316 317 319
326 326 326 326 327 327 328 327 328 328 329 328 327 325 324 324 327 326 326 327 326 325 326 326 327 326 324 320 320 320 321 322 321 321 321 319 320 321 320 321 320 320 319 318
326 326 325 325 326 327 328 327 327 327 326 326 325 324 324 325 326 326 326 325 323 323 323 323 322 323 320 320 321 322 321 321 320 320 320 320 320 320 319 319 319 320 320 320
324 326 325 325 325 324 324 326 325 323 321 321 323 325 324 324 325 325 325 324 322 321 320 319 317 314 317 318 320 319 319 318 318 318 317 317 317 317 317 317 317 318 318 319
325 326 326 324 323 323 323 325 324 323 322 322 323 325 325 325 324 323 322 319 317 315 317 314 312 313 315 317 317 317 316 316 315 314 313 313 313 313 313 314 315 315 316 316
324 325 325 324 324 323 322 320 319 319 318 318 319 320 321 321 321 319 316 314 309 308 306 305 306 307 309 310 310 310 310 310 310 309 309 309 311 311 312 313 313 313 313 313
323 323 323 324 322 319 321 320 319 316 316 314 316 318 317 318 319 315 311 308 306 308 306 301 301 303 304 304 304 304 304 305 304 303 304 304 305 306 306 307 309 309 308 309
323 322 322 321 322 320 319 319 317 314 313 311 310 311 311 311 309 308 306 305 304 303 303 302 300 300 300 300 300 300 300 300 300 300 299 300 300 300 300 300 301 301 302 303
322 322 323 322 321 320 320 318 315 312 310 309 309 309 308 307 306 305 304 304 303 302 302 301 300 299 298 298 299 299 299 299 299 299 299 299 299 300 300 300 299 299 299 299

GFSNGP_925_thetae_117.txt.gz
Theta_e
329 327 327 327 326 325 326 328 329 327 326 326 327 336 337 336 337 336 337 336 336 337 337 337 337 337 338 340 341 342 344 344 345 344 346 348 348 347 346 347 348 348 349 350
327 325 325 325 324 324 324 325 325 324 325 328 336 336 336 336 335 336 336 335 335 334 334 333 335 336 338 338 339 341 342 343 344 344 346 344 345 344 344 344 344 344 345 344
327 324 324 325 325 324 324 324 324 326 331 335 337 336 336 335 335 336 336 335 334 332 330 330 329 331 332 333 332 338 339 341 342 344 343 343 343 343 343 344 344 343 344 344
327 325 327 326 327 327 327 327 329 331 333 335 334 333 333 332 337 338 335 334 332 330 328 327 326 328 330 331 332 333 337 338 340 340 341 343 344 344 344 344 343 343 343 344
328 329 327 325 329 330 331 333 331 333 333 332 332 331 335 337 337 336 333 333 331 331 330 328 326 328 330 331 331 332 332 335 336 337 339 341 342 343 345 343 344 345 344 344
328 329 330 332 336 333 332 330 336 334 334 333 332 334 331 336 335 334 333 332 331 329 327 327 328 329 330 330 330 330 330 331 333 337 339 340 342 344 344 344 344 343 343 342
327 327 326 325 335 332 331 336 335 333 333 333 334 334 334 334 336 335 332 331 329 328 326 326 327 326 327 329 329 330 332 333 334 337 337 338 343 340 343 343 344 342 340 337
330 331 330 334 333 334 336 334 332 333 333 333 333 333 333 334 336 335 332 329 329 328 327 321 325 327 328 326 328 331 331 334 335 334 338 338 339 338 340 341 341 340 336 334
329 336 335 332 332 329 330 332 332 333 332 330 331 332 333 336 336 335 330 327 327 326 327 322 319 328 329 329 326 330 331 332 334 333 334 336 336 335 338 337 340 340 339 338
331 329 327 328 329 327 327 329 329 330 330 330 330 331 332 334 335 335 331 328 330 329 326 327 320 321 328 325 326 330 330 331 331 330 332 333 334 335 334 334 334 335 338 337
329 328 326 327 328 327 327 326 326 327 329 331 330 332 332 333 335 334 332 330 329 329 328 328 328 322 326 324 326 329 329 329 328 327 328 330 331 333 332 329 329 333 332 333
325 325 326 326 325 324 324 325 325 327 327 330 331 332 331 331 330 331 330 328 329 327 329 324 326 329 328 324 326 329 328 326 327 327 328 327 328 331 328 328 328 328 329 329
323 322 323 323 323 323 324 324 326 329 329 331 331 330 330 330 329 329 329 329 325 329 328 328 328 328 326 324 325 328 328 330 326 326 326 326 327 328 333 329 329 329 328 328
321 321 322 322 324 323 323 323 325 327 330 331 331 329 329 329 330 329 329 328 328 328 327 328 328 327 324 324 326 328 327 324 325 324 323 324 324 325 325 326 329 328 325 324
322 322 322 325 326 327 325 324 326 330 331 332 331 330 329 328 328 328 328 328 327 327 327 328 326 325 324 325 326 325 322 321 322 322 321 322 322 322 322 323 323 323 328 326
326 325 325 325 327 328 328 327 328 330 331 331 332 331 328 328 328 327 328 328 327 326 326 326 324 324 323 324 325 323 323 319 320 321 321 320 320 320 320 321 321 322 323 324
325 325 325 327 327 328 329 328 329 330 330 330 330 329 328 328 327 328 327 328 327 326 325 325 325 324 324 324 324 323 323 323 321 322 321 321 321 320 320 319 319 320 321 321
325 326 326 327 327 328 330 331 331 331 331 330 329 330 329 329 329 329 327 328 325 326 326 326 328 326 324 324 323 323 323 323 322 322 322 322 321 321 322 322 321 319 318 320
327 328 327 327 326 327 329 330 331 330 330 330 330 331 328 330 329 327 325 325 326 325 327 327 327 326 327 324 319 322 322 323 322 321 321 321 321 321 322 321 322 322 321 321
327 327 327 327 327 327 328 327 329 329 329 329 329 329 329 328 325 325 326 328 327 327 327 327 327 327 325 323 320 321 322 322 322 321 321 320 321 320 320 321 320 320 320 321
326 327 327 328 327 327 328 329 329 329 328 328 328 327 327 325 326 325 323 326 326 325 325 322 321 320 323 320 321 322 320 320 319 319 319 319 318 318 318 318 318 319 319 319
326 326 325 325 325 326 327 327 326 326 326 326 325 323 323 323 323 323 323 324 321 319 320 318 315 313 315 317 319 319 318 318 317 317 316 315 315 315 315 315 315 316 316 316
325 326 326 325 326 325 323 324 324 323 322 321 321 324 323 322 322 323 323 317 315 313 314 309 309 310 311 314 314 314 313 313 313 312 312 311 311 312 313 314 314 315 315 315
326 326 326 325 324 324 322 322 321 321 319 319 317 320 324 322 319 318 313 310 308 308 305 303 304 305 306 308 308 308 308 308 308 308 305 305 306 306 307 308 308 309 310 310
325 325 325 325 325 324 322 321 319 318 318 317 314 314 314 315 316 315 313 309 307 308 308 303 301 302 304 304 303 303 303 303 302 302 303 302 302 302 303 303 303 303 303 303
324 325 323 323 322 320 318 316 315 313 312 312 311 311 311 311 310 310 308 306 305 305 305 305 303 302 302 302 301 302 302 302 302 302 301 302 302 302 302 303 303 303 303 303
323 323 323 322 320 320 319 316 315 315 313 312 312 312 311 310 307 307 305 306 305 305 304 303 303 301 300 300 301 301 301 301 301 301 301 301 301 301 301 301 301 301 301 301

GFSNGP_925_thetae_123.txt.gz
Theta_e
327 326 325 327 327 325 324 326 328 325 326 327 339 338 337 336 337 337 335 336 334 333 329 330 329 328 328 328 329 330 332 333 336 337 338 340 341 343 346 347 345 346 347 349
330 328 328 329 327 326 323 323 323 322 323 338 335 333 334 333 333 334 338 336 334 332 331 329 328 328 328 329 330 330 331 334 334 333 336 336 338 344 345 346 345 345 347 348
333 332 329 328 327 325 324 324 325 330 339 335 335 335 337 339 339 337 336 335 333 332 331 331 328 329 329 328 330 331 331 331 333 333 333 334 336 338 346 346 346 346 346 345
331 330 332 327 326 326 326 325 327 329 338 336 333 335 336 336 339 338 336 334 332 330 330 328 327 327 328 324 330 330 327 330 331 332 332 332 333 335 342 343 343 344 344 345
331 331 329 329 328 334 335 332 334 334 337 335 333 334 334 332 336 335 334 332 332 330 328 327 326 326 327 327 328 327 327 329 330 330 331 332 334 334 336 339 340 341 342 342
329 330 331 328 329 332 333 334 338 337 335 333 332 333 335 334 336 335 335 334 333 331 328 327 325 324 326 328 329 328 327 329 329 328 331 333 336 334 332 337 339 339 341 340
331 331 329 328 329 331 335 337 336 334 333 332 332 330 330 336 335 337 336 333 332 330 329 327 324 320 322 326 316 324 328 330 329 329 331 332 327 325 328 337 339 339 339 339
331 332 331 336 337 341 340 335 333 332 331 332 331 331 330 335 336 335 334 331 330 329 328 328 324 321 323 324 317 321 328 330 330 330 330 333 331 331 328 336 338 336 335 334
330 330 333 332 335 333 331 332 332 331 331 332 331 330 329 330 337 335 335 334 330 326 327 328 326 326 322 322 323 323 328 330 330 330 331 332 332 333 334 333 334 336 337 335
333 334 331 329 335 333 331 329 328 327 328 327 330 327 329 326 333 334 330 330 329 329 330 329 326 327 328 327 324 325 328 329 330 330 331 331 327 329 331 332 334 335 335 332
329 327 331 336 331 330 331 330 328 327 326 326 327 327 324 323 333 334 333 332 330 329 328 326 327 327 327 328 323 326 327 327 328 328 331 326 327 326 328 328 330 331 328 326
326 326 327 328 328 325 328 328 327 327 326 326 326 326 328 326 334 333 333 332 331 329 328 324 327 328 328 324 324 327 327 327 327 324 325 330 327 327 327 327 326 326 325 325
324 324 327 327 326 324 324 324 324 325 325 326 325 330 331 333 333 332 331 329 330 328 324 326 328 327 326 324 326 327 327 325 324 321 322 322 324 328 327 328 326 325 325 325
321 325 325 322 322 324 324 325 325 324 323 324 328 329 333 333 331 331 330 329 329 326 325 327 328 326 324 325 326 325 319 320 322 322 321 321 321 325 328 328 327 325 324 323
320 323 322 321 323 323 324 325 327 326 324 324 325 330 329 328 327 329 330 329 328 327 327 327 327 324 325 325 326 326 321 319 320 321 323 320 320 320 320 320 325 328 325 322
324 323 325 324 323 325 326 326 325 326 326 325 325 327 327 326 323 322 326 326 327 327 325 327 325 324 324 325 325 326 326 322 323 323 323 322 321 321 321 321 319 326 326 324
323 324 326 324 323 323 326 327 326 327 327 324 323 324 325 324 325 326 321 322 327 326 326 326 326 327 327 325 322 323 323 324 323 322 323 322 322 322 322 323 323 322 321 327
322 322 321 322 323 323 325 326 328 326 326 326 323 325 325 324 322 322 323 323 325 321 323 325 324 324 325 324 323 322 323 322 322 321 321 322 321 320 320 321 322 322 322 322
320 324 321 321 329 329 329 331 328 326 326 325 324 324 324 323 323 323 322 327 325 320 318 319 324 326 325 322 320 322 323 321 320 320 320 318 319 318 317 319 320 321 320 320
320 321 323 329 328 330 330 330 329 326 328 325 325 322 325 323 322 326 326 325 324 322 319 321 319 319 318 317 318 319 321 319 317 316 314 314 313 314 314 316 317 317 317 317
321 322 327 328 328 328 324 327 327 325 329 327 325 326 325 324 320 322 324 320 319 316 315 312 310 312 312 314 316 315 313 312 313 311 309 307 307 308 307 309 309 312 314 315
325 326 327 327 326 325 323 324 322 325 325 325 326 325 324 324 323 322 315 312 310 310 307 305 305 307 309 309 309 308 308 307 306 305 304 305 304 304 304 305 305 305 305 305
325 326 325 324 324 323 323 322 321 323 323 323 322 321 321 319 317 312 309 307 307 305 303 303 304 306 306 305 305 305 305 304 303 303 304 303 303 303 304 304 305 305 304 304
326 325 324 323 323 322 321 318 317 318 320 321 321 320 321 314 310 310 309 308 305 305 303 303 304 304 303 304 304 304 304 303 303 303 303 303 303 303 304 304 303 303 303 303
326 325 325 323 323 321 322 319 318 315 313 313 314 316 315 313 313 310 308 306 306 307 304 304 303 303 302 302 303 302 303 303 302 302 303 303 303 303 303 303 303 303 302 302
324 324 323 321 321 319 317 316 315 314 314 313 314 315 315 313 310 308 307 307 307 306 305 303 302 302 302 302 302 302 303 302 302 302 302 303 303 303 302 301 301 301 301 300
323 323 322 320 318 317 318 316 315 313 313 312 312 311 311 309 308 307 307 307 306 305 304 303 302 302 301 302 302 302 302 301 301 301 302 302 301 301 300 300 299 299 299 298